GFSSW_700_spd_021.txt.gz
Wind_Speed
33 34 35 36 38 39 40 39 40 40 40 40 41 40 41 42 39 40 43 31 31 33 32 29 28 22 21 24 22 21 29 31 25 24 24 19 19 16 13 14 18 16 10 15 17
32 33 35 36 37 38 40 41 41 42 42 42 42 42 42 44 44 47 36 36 34 33 36 31 30 25 26 25 27 30 36 42 45 39 23 21 21 26 18 24 23 23 28 22 13
28 29 30 32 34 35 36 39 41 42 43 44 43 43 44 46 44 45 42 41 38 37 35 34 33 31 29 28 29 33 46 41 40 31 21 26 29 27 26 27 22 25 25 24 27
18 20 21 24 26 29 31 33 36 40 42 43 43 44 44 46 40 40 42 40 40 39 39 37 37 37 36 35 31 37 41 37 36 32 27 30 28 34 33 32 33 31 28 32 33
18 18 18 19 20 22 24 26 28 30 34 39 41 43 44 50 51 42 36 29 30 31 37 39 39 39 43 39 32 43 41 36 36 32 34 29 30 34 38 35 35 40 39 36 36
20 20 21 22 23 23 22 23 24 26 28 29 30 36 44 53 44 38 38 41 36 29 32 32 37 36 43 45 42 41 36 37 34 36 37 38 40 40 42 39 43 42 42 40 42
24 25 25 26 25 26 26 26 26 26 27 29 29 30 40 43 34 36 34 39 44 41 37 34 25 26 38 42 46 42 41 40 45 43 41 32 49 51 45 43 44 43 43 40 41
24 26 28 30 31 31 28 26 27 28 27 28 29 32 45 25 28 28 33 37 37 35 42 38 31 32 29 27 36 42 38 46 50 45 46 36 71 52 45 46 46 49 48 44 42
25 26 28 30 32 32 32 31 27 25 24 26 26 32 38 16 16 17 23 34 39 37 33 37 38 38 34 31 28 36 46 47 52 49 41 35 61 48 49 47 47 46 43 41 42
29 31 31 29 29 29 29 27 27 27 27 26 23 24 13 1 8 3 5 7 12 27 36 27 27 39 38 39 44 37 40 55 60 35 33 42 54 52 43 38 43 44 42 41 41
27 25 23 25 23 25 25 24 25 25 16 22 24 28 13 7 10 9 10 7 14 9 23 28 29 48 67 57 48 34 32 41 45 42 39 49 48 47 46 39 40 41 43 41 41
21 22 23 26 26 28 27 27 15 24 39 26 33 38 40 28 30 24 21 23 19 19 15 18 44 58 45 47 42 39 39 43 35 32 30 42 42 43 44 42 40 37 39 37 34
22 24 25 28 28 28 27 18 21 30 36 17 21 21 17 27 25 19 15 23 27 25 22 28 41 34 40 34 32 42 48 47 39 25 34 37 40 42 44 45 41 41 38 40 43
23 25 27 28 29 29 26 29 25 24 22 15 19 12 15 4 21 13 20 24 25 28 24 30 32 34 31 39 36 44 35 39 33 27 37 31 28 44 45 44 39 38 34 35 35
22 24 26 27 29 29 28 32 22 19 5 19 27 19 11 5 12 6 13 19 27 24 23 42 19 24 31 37 33 46 32 33 27 38 39 39 28 49 30 33 34 34 30 30 32
21 23 22 23 26 30 29 28 24 8 4 19 20 20 20 19 13 13 6 11 13 18 27 35 32 27 30 27 32 31 31 32 34 36 19 40 34 56 40 39 35 33 30 29 31
23 23 21 17 24 28 28 26 9 4 21 19 27 24 21 21 12 15 15 15 15 14 24 24 25 25 31 31 27 31 33 12 15 15 18 33 27 40 37 35 34 29 23 29 28
23 22 20 17 21 25 27 20 2 12 17 18 24 17 16 26 22 16 15 15 13 20 25 22 17 25 18 30 29 28 35 19 13 12 19 30 14 31 36 33 35 32 21 23 17
24 22 18 21 27 24 23 13 6 19 18 25 26 19 23 21 22 23 19 14 12 10 10 8 15 16 19 17 29 35 36 45 35 23 16 18 35 38 32 28 21 19 22 24 18
25 24 12 18 27 21 20 16 21 31 22 21 18 20 24 22 18 21 20 10 9 7 9 7 18 22 26 22 27 37 35 22 34 13 13 12 26 31 30 19 20 19 20 20 19
25 15 18 23 29 20 21 19 25 29 22 23 19 18 18 19 20 22 14 17 16 9 9 8 13 29 25 15 17 25 40 34 26 27 11 6 19 29 34 22 12 26 24 20 17
20 10 18 20 17 20 26 22 25 23 20 23 25 22 19 24 24 18 15 13 12 15 13 14 13 23 21 29 26 26 29 36 24 30 30 20 21 6 8 11 17 23 24 20 18
17 13 16 19 17 24 25 23 13 22 21 19 23 20 20 23 19 14 19 14 15 11 5 11 6 11 13 18 23 22 26 34 28 26 38 16 28 24 10 12 13 23 27 24 19
20 10 17 16 13 21 23 20 25 20 20 20 25 14 21 26 16 21 25 14 13 16 10 10 12 14 15 14 16 20 15 20 26 31 26 33 40 35 24 19 16 17 29 21 15
22 14 20 25 15 18 22 25 22 24 23 24 18 18 23 26 22 21 20 14 19 8 14 7 15 14 16 22 21 28 25 19 19 21 30 37 22 24 19 20 20 22 19 17 16
24 25 25 24 17 19 23 29 31 33 24 24 22 27 33 23 22 26 22 23 21 19 10 11 11 19 26 12 13 25 30 24 23 29 28 39 35 29 21 19 20 19 18 20 22
23 22 21 25 27 19 22 24 29 29 21 23 21 27 30 26 32 27 28 29 27 26 24 20 23 16 9 8 6 14 28 24 28 30 31 37 42 20 20 19 25 22 18 20 20

GFSSW_700_spd_024.txt.gz
Wind_Speed
29 30 31 32 32 33 34 34 35 36 37 37 39 41 41 42 41 41 43 34 32 31 30 30 27 23 23 24 23 27 29 35 30 22 20 9 22 18 14 8 18 12 7 14 13
24 26 27 29 31 32 33 34 35 36 37 38 39 40 42 44 43 44 35 36 37 37 37 32 30 27 30 28 30 33 39 39 28 28 28 22 21 32 32 26 23 23 17 14 23
18 19 21 22 23 25 29 32 34 36 37 37 38 40 42 44 44 42 41 41 39 38 38 35 31 32 35 33 36 38 48 41 38 37 35 37 35 30 36 41 32 29 18 22 22
16 17 19 20 21 22 22 24 27 30 32 34 37 40 40 43 38 35 36 38 41 39 40 39 39 40 44 43 42 42 44 42 42 39 38 40 34 38 32 35 33 29 33 29 27
13 14 15 16 18 21 23 25 26 27 29 30 32 35 38 43 43 31 29 30 31 38 42 42 42 42 44 44 41 48 47 40 37 34 35 35 39 39 40 34 33 31 31 32 33
15 16 18 19 20 21 21 23 25 28 28 30 32 35 39 45 28 28 34 39 29 32 33 37 43 42 43 44 44 48 45 43 40 39 35 35 40 41 42 37 39 39 36 38 40
21 21 23 25 25 25 24 24 25 28 29 30 32 34 42 36 31 29 31 33 39 39 37 35 31 33 41 42 42 44 46 44 49 42 37 29 45 48 38 36 36 36 39 45 46
19 19 21 22 23 23 24 27 30 31 29 28 32 36 47 33 32 27 27 29 32 39 43 38 35 37 34 33 31 35 43 51 56 48 41 27 64 47 39 37 41 43 46 43 44
19 20 22 22 23 21 21 21 21 24 29 34 34 32 34 9 1 6 15 25 28 34 37 37 35 36 35 33 32 36 47 53 60 48 40 37 68 48 47 46 48 47 47 44 48
18 19 21 22 24 23 24 27 28 28 28 27 25 26 8 5 5 6 6 6 26 35 37 37 39 41 41 40 42 36 45 51 51 40 32 43 68 53 50 47 51 52 49 43 39
15 17 21 24 27 30 31 32 33 36 28 28 37 38 36 15 12 12 13 9 7 6 29 36 41 53 61 51 44 23 30 37 32 27 32 48 54 51 44 45 45 45 41 39 39
15 17 20 24 28 31 33 32 31 29 41 29 13 21 20 18 31 28 14 16 15 17 14 21 49 51 47 33 39 41 43 35 24 15 21 29 41 42 42 42 40 39 39 42 38
15 17 19 21 26 29 31 29 26 25 23 30 25 21 27 22 16 32 21 20 21 20 18 24 15 35 38 29 34 37 42 41 29 27 27 24 43 33 46 44 44 42 40 38 40
18 19 20 20 22 26 28 28 26 19 9 20 26 31 34 25 15 9 19 17 21 25 25 29 31 29 24 25 35 36 34 23 30 33 31 29 34 47 50 51 49 48 44 43 46
19 21 22 22 19 25 28 29 21 11 4 11 22 25 28 16 14 4 5 20 30 29 26 32 7 13 23 28 21 36 25 26 25 25 30 36 24 65 33 43 46 45 46 45 38
19 22 21 19 19 23 25 29 13 6 4 15 21 28 29 28 20 15 17 7 11 24 27 28 22 20 19 19 19 14 21 26 27 26 17 34 27 32 38 44 40 35 31 29 25
20 22 18 14 20 21 23 27 6 6 19 16 27 24 20 26 25 18 11 11 6 8 19 20 21 22 20 22 22 20 14 6 7 10 17 19 25 48 10 6 18 22 23 20 21
24 23 13 15 23 24 24 19 6 13 18 27 26 18 17 21 22 23 12 9 3 4 16 12 11 18 14 10 18 24 19 12 7 4 5 34 16 20 28 31 29 27 21 21 22
23 22 11 17 26 27 23 10 8 16 24 28 31 12 19 20 16 23 17 11 5 7 7 5 7 10 12 13 12 18 29 25 21 29 4 15 24 35 44 36 30 25 26 22 25
23 21 13 21 26 23 24 12 16 19 22 28 13 11 20 18 18 23 13 9 17 5 4 3 8 19 21 18 20 19 14 15 19 7 6 8 15 22 18 16 15 17 20 22 21
24 20 15 20 22 22 23 24 23 14 19 17 17 16 20 15 20 19 10 15 9 8 10 15 11 16 17 14 20 18 16 21 15 11 8 3 8 26 24 19 19 16 22 20 20
22 17 16 18 20 16 22 24 19 18 17 15 16 22 18 19 18 8 7 11 9 14 12 11 9 12 22 21 20 20 19 13 8 12 18 17 27 27 25 21 18 19 21 21 14
22 14 18 15 16 23 25 22 17 19 19 20 21 23 15 17 14 18 12 20 8 10 6 10 4 8 11 8 9 12 13 15 18 20 31 13 17 23 20 11 13 22 24 21 15
25 17 20 10 15 17 20 22 27 25 27 16 17 15 19 20 21 18 21 12 20 15 20 13 11 11 12 11 15 13 12 9 14 16 28 37 32 33 16 3 11 18 23 24 19
26 21 22 23 19 18 17 19 26 31 29 18 20 17 24 28 27 18 15 16 16 17 9 13 17 15 17 21 15 19 22 16 16 24 15 23 38 39 28 27 23 23 27 28 24
24 24 25 23 18 21 17 20 25 26 22 22 21 19 20 22 22 29 28 24 23 19 19 18 15 18 30 26 17 19 21 22 22 24 22 25 35 25 28 24 30 31 27 30 23
25 24 26 27 23 21 18 21 25 24 19 21 22 23 24 26 29 32 33 26 27 23 23 24 22 18 21 14 9 10 16 17 20 18 11 32 31 9 13 20 34 30 28 23 19

GFSSW_700_spd_030.txt.gz
Wind_Speed
24 24 25 26 27 28 28 27 28 29 31 32 34 34 35 35 36 34 32 28 33 35 37 36 34 30 30 31 28 28 32 37 37 34 29 20 22 22 18 17 10 7 10 8 4
18 18 18 18 19 20 21 22 23 24 25 27 30 32 34 36 36 34 32 30 32 37 40 37 39 33 35 36 35 35 40 39 33 31 30 27 22 31 29 23 15 11 11 9 15
10 11 12 12 13 14 15 17 18 19 20 22 25 28 30 33 32 29 29 28 32 37 41 41 39 40 40 40 41 43 46 35 32 30 30 29 29 30 35 36 22 18 22 22 24
8 9 10 11 12 13 13 14 14 14 15 17 20 21 24 25 17 21 22 22 25 36 41 41 41 45 49 49 45 46 48 42 36 35 34 33 34 37 35 35 31 40 34 34 36
9 9 8 9 10 12 13 15 15 17 19 22 24 24 24 21 20 27 32 31 27 25 35 41 45 46 50 51 48 50 50 47 42 40 37 38 38 39 44 38 36 36 40 39 39
6 7 9 11 13 15 16 16 17 19 23 23 27 31 32 25 16 21 27 28 29 32 34 36 44 45 49 51 50 53 51 48 47 44 42 42 44 42 51 42 45 45 45 46 44
6 7 8 9 12 15 17 18 20 21 23 25 29 28 33 25 21 20 25 28 32 36 37 36 34 43 51 49 51 53 50 45 49 48 47 45 51 57 49 44 47 46 43 43 45
6 8 11 13 16 18 19 20 21 21 23 25 24 29 22 24 21 25 20 25 33 37 41 33 32 37 45 44 48 37 48 54 54 45 45 40 59 56 51 48 49 46 44 45 44
9 11 13 15 17 19 20 21 24 24 22 21 18 26 23 24 24 22 28 25 29 36 37 39 35 36 40 38 34 40 44 46 44 45 34 44 62 53 48 46 51 48 48 47 46
12 13 16 17 18 20 21 19 20 20 19 22 18 14 20 20 20 19 21 26 25 26 32 33 32 34 40 41 37 38 44 32 31 29 31 35 61 51 48 45 48 49 51 54 56
13 14 17 18 19 21 22 25 21 18 15 15 13 15 22 18 17 19 18 24 23 15 12 20 30 44 46 49 41 13 20 17 24 17 20 33 44 45 44 45 47 47 48 49 52
15 16 18 21 21 23 24 28 29 26 16 9 12 13 21 26 26 21 20 19 26 19 11 16 31 37 35 30 39 32 20 16 17 21 20 29 36 42 41 47 49 47 46 44 43
16 17 19 21 22 21 23 26 25 25 21 8 13 16 21 23 22 26 25 22 21 25 18 18 18 23 31 26 22 26 34 30 24 15 21 27 43 45 46 48 48 47 45 43 41
19 19 20 23 20 20 24 23 24 21 11 11 12 12 27 23 12 19 20 17 15 22 23 20 18 20 15 28 30 24 18 11 11 15 25 18 14 37 42 46 45 43 39 38 34
21 20 22 23 17 20 21 21 21 15 5 14 15 21 23 14 19 19 17 19 16 17 23 24 23 18 16 19 19 27 32 25 17 16 20 29 18 50 25 37 38 42 41 40 37
21 21 21 18 15 20 21 20 16 5 4 13 17 21 19 13 19 17 17 16 22 28 22 30 31 26 18 10 15 16 18 19 14 19 15 26 16 52 43 46 39 34 33 28 22
22 21 21 16 16 20 20 16 5 1 11 10 24 25 15 22 19 16 20 11 12 7 11 12 24 26 27 22 17 14 16 5 4 5 13 16 20 54 3 9 5 3 5 3 7
23 20 18 15 18 19 18 13 2 6 11 18 23 22 14 24 18 18 18 11 9 9 10 7 5 19 18 21 16 14 23 8 6 6 6 19 19 23 19 39 39 31 21 17 10
22 19 16 15 19 16 16 6 5 10 13 17 26 15 18 22 18 20 19 9 14 12 4 4 3 4 15 12 15 11 22 27 4 4 3 12 31 36 9 15 13 8 12 8 7
20 18 14 16 18 15 16 10 11 10 16 18 18 14 19 24 21 19 13 6 10 11 12 4 6 3 5 7 10 8 10 14 11 4 5 9 19 19 13 28 19 11 10 14 12
20 16 13 17 16 15 15 14 14 9 13 16 18 21 21 20 19 20 8 12 8 15 9 6 8 10 9 9 11 13 20 11 15 21 4 2 5 2 4 11 17 13 11 13 12
22 14 16 16 14 19 17 17 14 10 14 13 16 12 15 13 23 21 14 14 11 16 13 7 6 9 15 13 12 11 12 16 17 15 23 12 11 5 8 6 7 7 10 4 11
24 16 17 11 11 21 19 18 11 13 15 13 13 9 14 17 18 10 17 20 15 16 7 8 5 6 4 3 7 14 20 20 22 17 19 5 11 10 10 4 5 9 14 8 14
25 19 18 12 21 21 19 15 12 13 13 16 15 14 16 24 18 18 25 23 9 13 17 14 13 14 9 7 11 14 14 14 13 15 21 28 26 44 29 22 15 18 15 2 17
24 21 20 17 17 19 15 16 14 16 19 18 16 19 20 25 30 25 17 20 24 26 20 17 17 16 17 17 16 17 23 22 25 27 19 21 22 44 44 39 26 21 19 8 19
22 22 23 21 20 20 13 15 15 16 18 19 19 24 23 28 28 27 27 32 32 28 15 15 18 17 18 19 16 22 26 28 33 38 40 31 31 35 38 33 27 17 17 9 20
25 24 22 21 22 19 15 17 18 18 15 24 23 23 28 23 26 29 28 22 27 31 19 20 14 9 11 10 11 21 27 31 40 42 41 36 31 33 39 35 20 18 18 7 20

GFSSW_700_spd_033.txt.gz
Wind_Speed
21 22 23 24 24 24 24 24 24 24 25 26 26 26 28 29 29 29 29 27 29 34 35 34 36 34 33 33 31 28 31 30 36 33 33 23 17 22 23 18 17 19 20 20 19
14 15 15 16 16 16 16 15 16 17 19 20 21 22 25 27 26 26 28 28 31 36 36 37 37 35 37 37 37 36 41 42 36 30 30 26 22 23 29 24 19 19 14 17 14
10 10 10 10 11 11 10 9 8 9 11 13 14 15 19 22 21 24 23 26 30 34 38 40 39 40 41 40 42 43 49 39 37 31 27 27 30 27 31 34 27 21 22 22 20
9 9 8 6 6 6 7 7 8 10 12 14 13 14 14 15 10 19 23 22 21 30 37 41 41 43 47 48 46 47 50 45 39 37 33 30 30 38 36 39 36 32 27 26 26
7 5 5 6 7 9 10 11 12 15 17 19 18 18 15 13 13 20 22 23 26 25 31 40 43 42 47 50 47 51 51 49 45 42 39 35 39 39 46 41 40 44 43 31 32
4 4 6 8 10 12 14 15 17 18 20 21 21 20 22 17 10 12 16 21 25 29 33 33 38 39 46 50 49 50 50 54 49 46 44 41 42 42 52 43 42 42 41 37 36
6 6 8 9 11 14 16 17 17 19 21 21 22 19 19 14 18 18 12 11 19 29 31 34 34 36 43 45 48 51 47 38 47 51 49 43 50 59 50 46 45 40 41 43 45
8 9 10 12 14 16 18 19 19 20 21 20 20 18 12 15 19 20 20 15 16 22 32 33 38 38 38 37 34 37 40 43 52 51 52 43 57 64 51 52 50 50 49 54 53
12 13 14 16 18 19 21 22 20 21 19 18 14 18 12 18 17 18 17 16 15 20 24 26 33 41 37 35 28 28 40 40 39 44 40 29 60 57 58 56 58 59 53 51 50
13 14 16 17 19 19 20 22 21 21 19 18 10 8 16 13 17 16 19 19 17 18 25 23 27 38 44 28 40 31 32 36 35 28 31 38 61 47 37 37 52 53 53 50 51
14 14 17 19 20 21 20 19 20 16 20 16 13 10 13 17 18 19 21 20 18 18 21 22 23 33 31 30 32 27 10 32 27 22 28 38 49 48 49 51 53 55 54 53 55
15 15 17 18 20 23 22 22 21 20 18 14 8 11 16 25 28 18 19 22 18 15 19 20 25 25 20 21 27 30 28 15 14 23 26 25 37 38 44 54 58 59 57 52 51
18 18 19 19 21 21 21 23 23 23 20 7 8 13 16 24 21 13 20 23 22 18 17 23 26 17 19 25 26 26 32 33 17 16 20 19 35 39 45 46 47 49 50 49 49
20 19 19 20 21 19 21 22 23 23 9 3 7 9 21 22 8 19 17 21 21 18 13 22 26 23 21 17 25 28 17 18 27 24 24 12 17 23 26 44 52 52 48 46 45
23 19 19 19 18 16 20 22 21 16 4 8 7 14 18 15 20 17 15 21 23 18 16 26 21 17 21 18 13 26 24 16 11 15 19 29 21 41 25 40 45 43 43 41 38
22 20 18 17 14 16 20 20 18 4 4 6 10 20 19 15 18 17 15 16 20 20 20 33 29 26 25 17 13 14 19 24 23 19 19 28 17 45 35 40 42 38 32 30 31
22 20 17 14 14 16 17 16 7 4 8 8 19 23 17 19 22 15 18 15 12 13 15 18 19 27 29 23 18 12 16 12 14 17 19 11 19 43 5 2 13 14 10 11 4
23 20 18 16 15 17 15 12 5 7 14 16 21 22 17 20 21 22 19 15 9 15 24 6 6 9 18 29 25 21 22 14 16 14 21 20 16 18 18 24 16 17 8 11 15
21 19 18 15 17 16 13 5 3 11 12 16 22 14 17 12 21 20 17 7 9 15 11 10 4 6 8 17 22 21 19 27 7 7 15 19 29 32 16 6 5 7 12 13 13
18 19 14 16 18 14 14 10 8 8 12 13 10 11 14 15 15 12 13 7 12 11 14 10 9 6 4 6 11 16 16 19 18 6 8 11 25 16 6 20 16 11 13 13 16
17 16 12 15 14 13 14 12 16 8 11 11 15 13 16 15 11 14 9 16 6 16 15 15 7 6 9 6 10 7 12 14 17 17 3 3 3 9 9 11 7 2 6 12 11
18 12 15 13 13 17 19 17 18 7 11 15 11 12 14 15 18 16 12 12 17 21 20 15 8 11 13 12 14 11 7 12 14 22 19 14 6 9 16 15 10 5 5 4 11
21 12 15 9 12 17 18 19 11 10 9 10 10 12 15 20 16 12 17 19 18 20 12 14 5 10 10 4 4 8 11 9 10 14 17 15 10 14 12 2 6 10 15 12 12
23 14 15 10 17 17 18 13 14 10 11 10 17 12 17 23 20 19 31 21 20 16 13 13 14 15 13 11 12 13 12 13 11 16 22 27 34 32 22 22 7 12 16 18 5
24 16 15 13 14 16 17 14 14 11 12 18 15 17 18 30 29 29 22 25 24 24 24 20 20 18 20 22 20 22 24 19 19 22 20 23 38 35 29 32 31 12 16 17 11
23 22 20 12 13 16 12 14 13 12 19 17 18 22 22 26 27 33 28 28 34 27 19 18 27 15 16 20 22 26 27 27 26 25 28 30 43 39 45 38 35 22 19 15 16
24 22 22 18 13 15 13 15 14 19 12 19 16 21 24 23 28 30 31 28 27 26 25 26 18 11 18 11 11 19 29 31 29 26 25 33 41 36 33 35 36 27 18 14 13